NORTHEAST SUFFOLK  -  Winter Weather Advisory Winter Weather Advisory        NORTHERN NASSAU  -  Winter Weather Advisory Winter Weather Advisory        NORTHWEST SUFFOLK  -  Winter Weather Advisory Winter Weather Advisory        SOUTHEAST SUFFOLK  -  Winter Weather Advisory Winter Weather Advisory        SOUTHERN NASSAU  -  Winter Weather Advisory Winter Weather Advisory        SOUTHWEST SUFFOLK  -  Winter Weather Advisory Winter Weather Advisory      

Active alerts

Northern Nassau
  Details for Northern Nassau Winter Weather Advisory
Southern Nassau
  Details for Southern Nassau Winter Weather Advisory
Northwest Suffolk
  Details for Northwest Suffolk Winter Weather Advisory
Southwest Suffolk
  Details for Southwest Suffolk Winter Weather Advisory
Northeast Suffolk
  Details for Northeast Suffolk Winter Weather Advisory
Southeast Suffolk
  Details for Southeast Suffolk Winter Weather Advisory


WXM80 ListenWXM80 Stop

You find our weather info also at:

UK Metoffice

WeatherCloud

Weather Underground

Northeastern Weather Network

AWEKAS

Citizen Weather Observer Program (CWOP)

HAMweather, WeatherForYou, PWS Weather


Weather Underground History page Text

Daily Summary for February 12, 2017 Units:  Both    English   Metric
« Previous Day
Next Day »
Daily Weekly Monthly Yearly Custom
  High: Low: Average:
Temperature: 36.8 °F /  2.7 °C 30.1 °F /  -1.1 °C 33 °F /  0.6 °C
Dew Point: 36.3 °F /  2.4 °C 27.2 °F /  -2.7 °C 31.3 °F /  -0.4 °C
Humidity: 98 % 85 % 94 %
Wind Speed: 12.0 mph /  19.3 km/h - 6.4 mph /  10.3 km/h
Wind Gust: 16.1 mph /  25.9 km/h - -
Wind:- - ESE
Pressure: 30.11 in /  1019.5 hPa 29.55 in /  1000.6 hPa -
Precipitation: 0.00 in /  0 mm    
Historical Graphs
 
 
Tabular Data for February 12, 2017
Time Temperature Dew Point Pressure Wind Wind Speed Wind Gust Humidity Rainfall Rate (Hourly)
00:02 34.6 °F /  1.4 °C 31.7 °F /  -0.2 °C 30.08 in /  1018.5 hPa ENE 2.7 mph /  4.3 km/h 4.0 mph /  6.4 km/h 89 % 0.00 in /  0 mm
00:07 34.6 °F /  1.4 °C 31.7 °F /  -0.2 °C 30.08 in /  1018.5 hPa ENE 1.8 mph /  2.9 km/h 3.5 mph /  5.6 km/h 89 % 0.00 in /  0 mm
00:12 34.6 °F /  1.4 °C 31.7 °F /  -0.2 °C 30.08 in /  1018.5 hPa ENE 1.7 mph /  2.7 km/h 3.5 mph /  5.6 km/h 89 % 0.00 in /  0 mm
00:17 34.6 °F /  1.4 °C 31.7 °F /  -0.2 °C 30.08 in /  1018.5 hPa ENE 0.9 mph /  1.4 km/h 2.3 mph /  3.7 km/h 89 % 0.00 in /  0 mm
00:23 34.6 °F /  1.4 °C 31.7 °F /  -0.2 °C 30.08 in /  1018.5 hPa ENE 0.8 mph /  1.3 km/h 1.2 mph /  1.9 km/h 89 % 0.00 in /  0 mm
00:28 34.6 °F /  1.4 °C 31.7 °F /  -0.2 °C 30.08 in /  1018.5 hPa ENE 0.6 mph /  1 km/h 1.2 mph /  1.9 km/h 89 % 0.00 in /  0 mm
00:33 34.5 °F /  1.4 °C 31.6 °F /  -0.2 °C 30.09 in /  1018.8 hPa ENE 0.7 mph /  1.1 km/h 2.0 mph /  3.2 km/h 89 % 0.00 in /  0 mm
00:38 34.5 °F /  1.4 °C 31.6 °F /  -0.2 °C 30.09 in /  1018.8 hPa ENE 1.3 mph /  2.1 km/h 2.3 mph /  3.7 km/h 89 % 0.00 in /  0 mm
00:43 34.4 °F /  1.3 °C 31.5 °F /  -0.3 °C 30.09 in /  1018.8 hPa ENE 4.7 mph /  7.6 km/h 5.8 mph /  9.3 km/h 89 % 0.00 in /  0 mm
00:48 34.5 °F /  1.4 °C 31.6 °F /  -0.2 °C 30.09 in /  1018.8 hPa ENE 6.3 mph /  10.1 km/h 9.0 mph /  14.5 km/h 89 % 0.00 in /  0 mm
00:53 34.5 °F /  1.4 °C 31.6 °F /  -0.2 °C 30.09 in /  1018.8 hPa East 8.2 mph /  13.2 km/h 10.4 mph /  16.7 km/h 89 % 0.00 in /  0 mm
00:58 34.3 °F /  1.3 °C 30.8 °F /  -0.7 °C 30.09 in /  1018.8 hPa East 8.6 mph /  13.8 km/h 11.5 mph /  18.5 km/h 87 % 0.00 in /  0 mm
01:03 34.1 °F /  1.2 °C 30.6 °F /  -0.8 °C 30.09 in /  1018.8 hPa East 8.8 mph /  14.2 km/h 11.5 mph /  18.5 km/h 87 % 0.00 in /  0 mm
01:08 33.9 °F /  1.1 °C 30.4 °F /  -0.9 °C 30.09 in /  1018.8 hPa East 9.1 mph /  14.6 km/h 11.5 mph /  18.5 km/h 87 % 0.00 in /  0 mm
01:13 33.7 °F /  0.9 °C 30.0 °F /  -1.1 °C 30.09 in /  1018.8 hPa ENE 8.4 mph /  13.5 km/h 11.5 mph /  18.5 km/h 86 % 0.00 in /  0 mm
01:18 33.5 °F /  0.8 °C 29.8 °F /  -1.2 °C 30.09 in /  1018.8 hPa East 9.5 mph /  15.3 km/h 13.8 mph /  22.2 km/h 86 % 0.00 in /  0 mm
01:23 33.5 °F /  0.8 °C 29.8 °F /  -1.2 °C 30.09 in /  1018.8 hPa East 10.1 mph /  16.3 km/h 11.5 mph /  18.5 km/h 86 % 0.00 in /  0 mm
01:28 33.6 °F /  0.9 °C 29.5 °F /  -1.4 °C 30.10 in /  1019.2 hPa ENE 12.0 mph /  19.3 km/h 15.0 mph /  24.1 km/h 85 % 0.00 in /  0 mm
01:33 33.6 °F /  0.9 °C 29.6 °F /  -1.3 °C 30.10 in /  1019.2 hPa ENE 9.8 mph /  15.8 km/h 13.0 mph /  20.9 km/h 85 % 0.00 in /  0 mm
01:38 33.5 °F /  0.8 °C 29.5 °F /  -1.4 °C 30.10 in /  1019.2 hPa ENE 9.0 mph /  14.5 km/h 13.0 mph /  20.9 km/h 85 % 0.00 in /  0 mm
01:43 33.5 °F /  0.8 °C 29.5 °F /  -1.4 °C 30.11 in /  1019.5 hPa ENE 10.0 mph /  16.1 km/h 14.0 mph /  22.5 km/h 85 % 0.00 in /  0 mm
01:48 33.5 °F /  0.8 °C 29.5 °F /  -1.4 °C 30.11 in /  1019.5 hPa ENE 9.0 mph /  14.5 km/h 12.0 mph /  19.3 km/h 85 % 0.00 in /  0 mm
01:53 33.4 °F /  0.8 °C 29.4 °F /  -1.4 °C 30.10 in /  1019.2 hPa NE 7.7 mph /  12.4 km/h 10.4 mph /  16.7 km/h 85 % 0.00 in /  0 mm
01:58 33.3 °F /  0.7 °C 29.3 °F /  -1.5 °C 30.11 in /  1019.5 hPa East 8.4 mph /  13.5 km/h 13.8 mph /  22.2 km/h 85 % 0.00 in /  0 mm
02:03 33.3 °F /  0.7 °C 29.3 °F /  -1.5 °C 30.11 in /  1019.5 hPa ENE 7.5 mph /  12.1 km/h 13.8 mph /  22.2 km/h 85 % 0.00 in /  0 mm
02:08 33.2 °F /  0.7 °C 29.2 °F /  -1.6 °C 30.11 in /  1019.5 hPa ENE 7.8 mph /  12.6 km/h 11.5 mph /  18.5 km/h 85 % 0.00 in /  0 mm
02:14 33.2 °F /  0.7 °C 29.2 °F /  -1.6 °C 30.11 in /  1019.5 hPa ENE 9.0 mph /  14.5 km/h 11.5 mph /  18.5 km/h 85 % 0.00 in /  0 mm
02:19 33.2 °F /  0.7 °C 29.2 °F /  -1.6 °C 30.11 in /  1019.5 hPa ENE 6.8 mph /  10.9 km/h 10.4 mph /  16.7 km/h 85 % 0.00 in /  0 mm
02:24 33.2 °F /  0.7 °C 29.2 °F /  -1.6 °C 30.10 in /  1019.2 hPa ENE 6.6 mph /  10.6 km/h 10.4 mph /  16.7 km/h 85 % 0.00 in /  0 mm
02:29 33.2 °F /  0.7 °C 29.5 °F /  -1.4 °C 30.11 in /  1019.5 hPa NE 7.4 mph /  11.9 km/h 10.4 mph /  16.7 km/h 86 % 0.00 in /  0 mm
02:34 33.2 °F /  0.7 °C 29.5 °F /  -1.4 °C 30.10 in /  1019.2 hPa ENE 6.6 mph /  10.6 km/h 10.4 mph /  16.7 km/h 86 % 0.00 in /  0 mm
02:39 33.2 °F /  0.7 °C 29.5 °F /  -1.4 °C 30.10 in /  1019.2 hPa ENE 7.8 mph /  12.6 km/h 10.0 mph /  16.1 km/h 86 % 0.00 in /  0 mm
02:44 33.1 °F /  0.6 °C 29.4 °F /  -1.4 °C 30.11 in /  1019.5 hPa ENE 6.5 mph /  10.5 km/h 10.4 mph /  16.7 km/h 86 % 0.00 in /  0 mm
02:49 33.0 °F /  0.6 °C 29.0 °F /  -1.7 °C 30.10 in /  1019.2 hPa ENE 7.2 mph /  11.6 km/h 9.2 mph /  14.8 km/h 85 % 0.00 in /  0 mm
02:54 33.0 °F /  0.6 °C 29.0 °F /  -1.7 °C 30.09 in /  1018.8 hPa NE 7.9 mph /  12.7 km/h 10.4 mph /  16.7 km/h 85 % 0.00 in /  0 mm
02:59 32.9 °F /  0.5 °C 28.9 °F /  -1.7 °C 30.09 in /  1018.8 hPa ENE 7.0 mph /  11.3 km/h 11.0 mph /  17.7 km/h 85 % 0.00 in /  0 mm
03:04 32.8 °F /  0.4 °C 28.8 °F /  -1.8 °C 30.10 in /  1019.2 hPa ENE 5.8 mph /  9.3 km/h 10.4 mph /  16.7 km/h 85 % 0.00 in /  0 mm
03:09 32.8 °F /  0.4 °C 28.8 °F /  -1.8 °C 30.10 in /  1019.2 hPa ENE 6.5 mph /  10.5 km/h 10.4 mph /  16.7 km/h 85 % 0.00 in /  0 mm
03:14 32.7 °F /  0.4 °C 28.7 °F /  -1.8 °C 30.10 in /  1019.2 hPa NE 6.0 mph /  9.7 km/h 10.0 mph /  16.1 km/h 85 % 0.00 in /  0 mm
03:19 32.7 °F /  0.4 °C 28.7 °F /  -1.8 °C 30.09 in /  1018.8 hPa ENE 6.6 mph /  10.6 km/h 11.5 mph /  18.5 km/h 85 % 0.00 in /  0 mm
03:24 32.7 °F /  0.4 °C 28.7 °F /  -1.8 °C 30.10 in /  1019.2 hPa ENE 6.0 mph /  9.7 km/h 11.5 mph /  18.5 km/h 85 % 0.00 in /  0 mm
03:30 32.6 °F /  0.3 °C 28.6 °F /  -1.9 °C 30.09 in /  1018.8 hPa ENE 4.9 mph /  7.9 km/h 9.2 mph /  14.8 km/h 85 % 0.00 in /  0 mm
03:35 32.6 °F /  0.3 °C 28.6 °F /  -1.9 °C 30.10 in /  1019.2 hPa ENE 6.2 mph /  10 km/h 11.5 mph /  18.5 km/h 85 % 0.00 in /  0 mm
03:40 32.6 °F /  0.3 °C 28.6 °F /  -1.9 °C 30.09 in /  1018.8 hPa NE 7.9 mph /  12.7 km/h 11.5 mph /  18.5 km/h 85 % 0.00 in /  0 mm
03:45 32.6 °F /  0.3 °C 28.6 °F /  -1.9 °C 30.09 in /  1018.8 hPa ENE 7.9 mph /  12.7 km/h 11.5 mph /  18.5 km/h 85 % 0.00 in /  0 mm
03:50 32.6 °F /  0.3 °C 28.6 °F /  -1.9 °C 30.10 in /  1019.2 hPa NE 6.4 mph /  10.3 km/h 10.4 mph /  16.7 km/h 85 % 0.00 in /  0 mm
03:55 32.6 °F /  0.3 °C 28.6 °F /  -1.9 °C 30.10 in /  1019.2 hPa ENE 7.1 mph /  11.4 km/h 12.7 mph /  20.4 km/h 85 % 0.00 in /  0 mm
04:00 32.6 °F /  0.3 °C 28.6 °F /  -1.9 °C 30.09 in /  1018.8 hPa East 7.6 mph /  12.2 km/h 10.4 mph /  16.7 km/h 85 % 0.00 in /  0 mm
04:05 32.5 °F /  0.3 °C 28.5 °F /  -1.9 °C 30.09 in /  1018.8 hPa NE 8.9 mph /  14.3 km/h 11.5 mph /  18.5 km/h 85 % 0.00 in /  0 mm
04:10 32.4 °F /  0.2 °C 28.4 °F /  -2 °C 30.09 in /  1018.8 hPa ENE 6.9 mph /  11.1 km/h 9.2 mph /  14.8 km/h 85 % 0.00 in /  0 mm
04:15 32.4 °F /  0.2 °C 28.4 °F /  -2 °C 30.09 in /  1018.8 hPa NE 8.7 mph /  14 km/h 11.5 mph /  18.5 km/h 85 % 0.00 in /  0 mm
04:20 32.3 °F /  0.2 °C 28.3 °F /  -2.1 °C 30.09 in /  1018.8 hPa NE 8.1 mph /  13 km/h 11.5 mph /  18.5 km/h 85 % 0.00 in /  0 mm
04:25 32.3 °F /  0.2 °C 28.3 °F /  -2.1 °C 30.09 in /  1018.8 hPa ENE 10.7 mph /  17.2 km/h 13.0 mph /  20.9 km/h 85 % 0.00 in /  0 mm
04:30 32.1 °F /  0.1 °C 28.1 °F /  -2.2 °C 30.09 in /  1018.8 hPa ENE 6.5 mph /  10.5 km/h 11.5 mph /  18.5 km/h 85 % 0.00 in /  0 mm
04:35 32.1 °F /  0.1 °C 28.1 °F /  -2.2 °C 30.10 in /  1019.2 hPa ENE 8.9 mph /  14.3 km/h 11.5 mph /  18.5 km/h 85 % 0.00 in /  0 mm
04:40 32.0 °F /  0 °C 28.0 °F /  -2.2 °C 30.09 in /  1018.8 hPa ENE 10.1 mph /  16.3 km/h 12.7 mph /  20.4 km/h 85 % 0.00 in /  0 mm
04:45 32.0 °F /  0 °C 28.0 °F /  -2.2 °C 30.10 in /  1019.2 hPa ENE 9.0 mph /  14.5 km/h 9.2 mph /  14.8 km/h 85 % 0.00 in /  0 mm
04:51 31.9 °F /  -0.1 °C 27.9 °F /  -2.3 °C 30.10 in /  1019.2 hPa ENE 8.7 mph /  14 km/h 13.8 mph /  22.2 km/h 85 % 0.00 in /  0 mm
04:56 31.8 °F /  -0.1 °C 27.8 °F /  -2.3 °C 30.10 in /  1019.2 hPa NE 8.1 mph /  13 km/h 11.5 mph /  18.5 km/h 85 % 0.00 in /  0 mm
05:01 31.7 °F /  -0.2 °C 27.7 °F /  -2.4 °C 30.09 in /  1018.8 hPa ENE 9.0 mph /  14.5 km/h 11.5 mph /  18.5 km/h 85 % 0.00 in /  0 mm
05:06 31.7 °F /  -0.2 °C 27.7 °F /  -2.4 °C 30.09 in /  1018.8 hPa ENE 8.5 mph /  13.7 km/h 12.7 mph /  20.4 km/h 85 % 0.00 in /  0 mm
05:11 31.6 °F /  -0.2 °C 27.6 °F /  -2.4 °C 30.09 in /  1018.8 hPa ENE 8.1 mph /  13 km/h 12.7 mph /  20.4 km/h 85 % 0.00 in /  0 mm
05:16 31.6 °F /  -0.2 °C 27.6 °F /  -2.4 °C 30.09 in /  1018.8 hPa ENE 8.0 mph /  12.9 km/h 12.7 mph /  20.4 km/h 85 % 0.00 in /  0 mm
05:21 31.6 °F /  -0.2 °C 27.6 °F /  -2.4 °C 30.09 in /  1018.8 hPa ENE 7.8 mph /  12.6 km/h 11.5 mph /  18.5 km/h 85 % 0.00 in /  0 mm
05:26 31.5 °F /  -0.3 °C 27.5 °F /  -2.5 °C 30.10 in /  1019.2 hPa ENE 6.5 mph /  10.5 km/h 11.5 mph /  18.5 km/h 85 % 0.00 in /  0 mm
05:32 31.4 °F /  -0.3 °C 27.7 °F /  -2.4 °C 30.09 in /  1018.8 hPa East 8.9 mph /  14.3 km/h 12.0 mph /  19.3 km/h 86 % 0.00 in /  0 mm
05:37 31.4 °F /  -0.3 °C 27.7 °F /  -2.4 °C 30.09 in /  1018.8 hPa ENE 10.5 mph /  16.9 km/h 13.8 mph /  22.2 km/h 86 % 0.00 in /  0 mm
05:42 31.4 °F /  -0.3 °C 27.7 °F /  -2.4 °C 30.09 in /  1018.8 hPa ENE 8.3 mph /  13.4 km/h 13.8 mph /  22.2 km/h 86 % 0.00 in /  0 mm
05:47 31.2 °F /  -0.4 °C 27.5 °F /  -2.5 °C 30.09 in /  1018.8 hPa East 8.7 mph /  14 km/h 11.5 mph /  18.5 km/h 86 % 0.00 in /  0 mm
05:52 31.2 °F /  -0.4 °C 27.5 °F /  -2.5 °C 30.09 in /  1018.8 hPa ENE 8.9 mph /  14.3 km/h 13.0 mph /  20.9 km/h 86 % 0.00 in /  0 mm
05:57 31.1 °F /  -0.5 °C 27.4 °F /  -2.6 °C 30.10 in /  1019.2 hPa ENE 8.4 mph /  13.5 km/h 11.5 mph /  18.5 km/h 86 % 0.00 in /  0 mm
06:02 31.0 °F /  -0.6 °C 27.6 °F /  -2.4 °C 30.09 in /  1018.8 hPa ENE 8.8 mph /  14.2 km/h 11.5 mph /  18.5 km/h 87 % 0.00 in /  0 mm
06:07 30.9 °F /  -0.6 °C 27.2 °F /  -2.7 °C 30.09 in /  1018.8 hPa ENE 10.5 mph /  16.9 km/h 13.8 mph /  22.2 km/h 86 % 0.00 in /  0 mm
06:12 30.9 °F /  -0.6 °C 27.5 °F /  -2.5 °C 30.10 in /  1019.2 hPa ENE 8.7 mph /  14 km/h 11.0 mph /  17.7 km/h 87 % 0.00 in /  0 mm
06:17 30.8 °F /  -0.7 °C 27.4 °F /  -2.6 °C 30.10 in /  1019.2 hPa ENE 8.6 mph /  13.8 km/h 11.5 mph /  18.5 km/h 87 % 0.00 in /  0 mm
06:22 30.7 °F /  -0.7 °C 27.3 °F /  -2.6 °C 30.10 in /  1019.2 hPa ENE 7.7 mph /  12.4 km/h 11.5 mph /  18.5 km/h 87 % 0.00 in /  0 mm
06:27 30.6 °F /  -0.8 °C 27.2 °F /  -2.7 °C 30.10 in /  1019.2 hPa ENE 8.7 mph /  14 km/h 11.5 mph /  18.5 km/h 87 % 0.00 in /  0 mm
06:32 30.6 °F /  -0.8 °C 27.2 °F /  -2.7 °C 30.10 in /  1019.2 hPa NE 8.4 mph /  13.5 km/h 11.5 mph /  18.5 km/h 87 % 0.00 in /  0 mm
06:37 30.6 °F /  -0.8 °C 27.2 °F /  -2.7 °C 30.09 in /  1018.8 hPa NE 7.4 mph /  11.9 km/h 12.7 mph /  20.4 km/h 87 % 0.00 in /  0 mm
06:42 30.5 °F /  -0.8 °C 27.4 °F /  -2.6 °C 30.09 in /  1018.8 hPa NE 7.7 mph /  12.4 km/h 15.0 mph /  24.1 km/h 88 % 0.00 in /  0 mm
06:47 30.4 °F /  -0.9 °C 27.3 °F /  -2.6 °C 30.08 in /  1018.5 hPa ENE 9.2 mph /  14.8 km/h 12.7 mph /  20.4 km/h 88 % 0.00 in /  0 mm
06:53 30.3 °F /  -0.9 °C 27.4 °F /  -2.6 °C 30.08 in /  1018.5 hPa ENE 9.0 mph /  14.5 km/h 15.0 mph /  24.1 km/h 89 % 0.00 in /  0 mm
06:58 30.3 °F /  -0.9 °C 27.4 °F /  -2.6 °C 30.08 in /  1018.5 hPa NE 9.6 mph /  15.4 km/h 12.7 mph /  20.4 km/h 89 % 0.00 in /  0 mm
07:03 30.2 °F /  -1 °C 27.3 °F /  -2.6 °C 30.08 in /  1018.5 hPa ENE 9.6 mph /  15.4 km/h 12.7 mph /  20.4 km/h 89 % 0.00 in /  0 mm
07:08 30.1 °F /  -1.1 °C 27.5 °F /  -2.5 °C 30.08 in /  1018.5 hPa ENE 10.3 mph /  16.6 km/h 12.7 mph /  20.4 km/h 90 % 0.00 in /  0 mm
07:13 30.1 °F /  -1.1 °C 27.5 °F /  -2.5 °C 30.07 in /  1018.2 hPa ENE 11.0 mph /  17.7 km/h 16.1 mph /  25.9 km/h 90 % 0.01 in /  0.25 mm
07:18 30.1 °F /  -1.1 °C 27.8 °F /  -2.3 °C 30.06 in /  1017.8 hPa ENE 10.9 mph /  17.5 km/h 16.1 mph /  25.9 km/h 91 % 0.01 in /  0.25 mm
07:23 30.2 °F /  -1 °C 27.9 °F /  -2.3 °C 30.06 in /  1017.8 hPa ENE 8.6 mph /  13.8 km/h 13.8 mph /  22.2 km/h 91 % 0.01 in /  0.25 mm
07:28 30.2 °F /  -1 °C 28.2 °F /  -2.1 °C 30.05 in /  1017.5 hPa ENE 9.0 mph /  14.5 km/h 14.0 mph /  22.5 km/h 92 % 0.00 in /  0 mm
07:33 30.4 °F /  -0.9 °C 28.4 °F /  -2 °C 30.05 in /  1017.5 hPa ENE 8.0 mph /  12.9 km/h 12.0 mph /  19.3 km/h 92 % 0.00 in /  0 mm
07:38 30.5 °F /  -0.8 °C 28.5 °F /  -1.9 °C 30.05 in /  1017.5 hPa East 9.0 mph /  14.5 km/h 14.0 mph /  22.5 km/h 92 % 0.00 in /  0 mm
07:44 30.6 °F /  -0.8 °C 28.6 °F /  -1.9 °C 30.04 in /  1017.2 hPa ENE 9.3 mph /  15 km/h 12.7 mph /  20.4 km/h 92 % 0.02 in /  0.51 mm
07:49 30.6 °F /  -0.8 °C 28.8 °F /  -1.8 °C 30.04 in /  1017.2 hPa East 9.6 mph /  15.4 km/h 11.5 mph /  18.5 km/h 93 % 0.02 in /  0.51 mm
07:54 30.7 °F /  -0.7 °C 28.9 °F /  -1.7 °C 30.04 in /  1017.2 hPa ENE 8.8 mph /  14.2 km/h 12.7 mph /  20.4 km/h 93 % 0.02 in /  0.51 mm
07:59 30.7 °F /  -0.7 °C 28.7 °F /  -1.8 °C 30.04 in /  1017.2 hPa East 10.0 mph /  16.1 km/h 12.7 mph /  20.4 km/h 92 % 0.02 in /  0.51 mm
08:04 30.7 °F /  -0.7 °C 28.9 °F /  -1.7 °C 30.04 in /  1017.2 hPa East 8.7 mph /  14 km/h 10.4 mph /  16.7 km/h 93 % 0.02 in /  0.51 mm
08:09 30.7 °F /  -0.7 °C 28.9 °F /  -1.7 °C 30.05 in /  1017.5 hPa ENE 8.0 mph /  12.9 km/h 11.0 mph /  17.7 km/h 93 % 0.02 in /  0.51 mm
08:14 30.7 °F /  -0.7 °C 28.9 °F /  -1.7 °C 30.05 in /  1017.5 hPa East 8.2 mph /  13.2 km/h 10.0 mph /  16.1 km/h 93 % 0.01 in /  0.25 mm
08:19 30.7 °F /  -0.7 °C 28.9 °F /  -1.7 °C 30.06 in /  1017.8 hPa ENE 8.0 mph /  12.9 km/h 11.0 mph /  17.7 km/h 93 % 0.01 in /  0.25 mm
08:24 30.7 °F /  -0.7 °C 28.9 °F /  -1.7 °C 30.07 in /  1018.2 hPa East 6.5 mph /  10.5 km/h 8.1 mph /  13 km/h 93 % 0.01 in /  0.25 mm
08:29 30.7 °F /  -0.7 °C 28.9 °F /  -1.7 °C 30.07 in /  1018.2 hPa East 4.7 mph /  7.6 km/h 8.1 mph /  13 km/h 93 % 0.01 in /  0.25 mm
08:34 30.8 °F /  -0.7 °C 29.0 °F /  -1.7 °C 30.06 in /  1017.8 hPa East 6.7 mph /  10.8 km/h 9.2 mph /  14.8 km/h 93 % 0.00 in /  0 mm
08:39 30.7 °F /  -0.7 °C 28.9 °F /  -1.7 °C 30.06 in /  1017.8 hPa East 4.2 mph /  6.8 km/h 5.0 mph /  8 km/h 93 % 0.00 in /  0 mm
08:44 30.7 °F /  -0.7 °C 29.2 °F /  -1.6 °C 30.06 in /  1017.8 hPa East 6.6 mph /  10.6 km/h 8.1 mph /  13 km/h 94 % 0.01 in /  0.25 mm
08:49 30.7 °F /  -0.7 °C 28.9 °F /  -1.7 °C 30.05 in /  1017.5 hPa East 7.1 mph /  11.4 km/h 8.0 mph /  12.9 km/h 93 % 0.01 in /  0.25 mm
08:54 30.7 °F /  -0.7 °C 28.9 °F /  -1.7 °C 30.05 in /  1017.5 hPa ENE 7.4 mph /  11.9 km/h 10.4 mph /  16.7 km/h 93 % 0.01 in /  0.25 mm
08:59 30.6 °F /  -0.8 °C 28.8 °F /  -1.8 °C 30.04 in /  1017.2 hPa East 7.3 mph /  11.7 km/h 10.4 mph /  16.7 km/h 93 % 0.01 in /  0.25 mm
09:05 30.6 °F /  -0.8 °C 29.1 °F /  -1.6 °C 30.04 in /  1017.2 hPa East 8.0 mph /  12.9 km/h 10.4 mph /  16.7 km/h 94 % 0.02 in /  0.51 mm
09:10 30.6 °F /  -0.8 °C 29.1 °F /  -1.6 °C 30.04 in /  1017.2 hPa ENE 7.1 mph /  11.4 km/h 11.0 mph /  17.7 km/h 94 % 0.02 in /  0.51 mm
09:15 30.6 °F /  -0.8 °C 29.1 °F /  -1.6 °C 30.04 in /  1017.2 hPa ENE 8.1 mph /  13 km/h 10.4 mph /  16.7 km/h 94 % 0.02 in /  0.51 mm
09:20 30.5 °F /  -0.8 °C 29.0 °F /  -1.7 °C 30.04 in /  1017.2 hPa ENE 7.0 mph /  11.3 km/h 9.2 mph /  14.8 km/h 94 % 0.02 in /  0.51 mm
09:25 30.5 °F /  -0.8 °C 29.0 °F /  -1.7 °C 30.04 in /  1017.2 hPa ENE 6.5 mph /  10.5 km/h 8.1 mph /  13 km/h 94 % 0.02 in /  0.51 mm
09:30 30.6 °F /  -0.8 °C 29.1 °F /  -1.6 °C 30.04 in /  1017.2 hPa East 7.9 mph /  12.7 km/h 10.4 mph /  16.7 km/h 94 % 0.03 in /  0.76 mm
09:35 30.6 °F /  -0.8 °C 29.1 °F /  -1.6 °C 30.04 in /  1017.2 hPa East 7.2 mph /  11.6 km/h 9.2 mph /  14.8 km/h 94 % 0.03 in /  0.76 mm
09:40 30.6 °F /  -0.8 °C 29.1 °F /  -1.6 °C 30.02 in /  1016.5 hPa East 7.5 mph /  12.1 km/h 9.2 mph /  14.8 km/h 94 % 0.03 in /  0.76 mm
09:45 30.6 °F /  -0.8 °C 29.1 °F /  -1.6 °C 30.02 in /  1016.5 hPa NE 8.2 mph /  13.2 km/h 11.5 mph /  18.5 km/h 94 % 0.03 in /  0.76 mm
09:50 30.6 °F /  -0.8 °C 29.3 °F /  -1.5 °C 30.02 in /  1016.5 hPa NE 7.2 mph /  11.6 km/h 10.4 mph /  16.7 km/h 95 % 0.03 in /  0.76 mm
09:55 30.6 °F /  -0.8 °C 29.3 °F /  -1.5 °C 30.01 in /  1016.1 hPa East 8.8 mph /  14.2 km/h 10.4 mph /  16.7 km/h 95 % 0.04 in /  1.02 mm
10:00 30.7 °F /  -0.7 °C 29.4 °F /  -1.4 °C 30.01 in /  1016.1 hPa East 8.4 mph /  13.5 km/h 11.0 mph /  17.7 km/h 95 % 0.04 in /  1.02 mm
10:05 30.7 °F /  -0.7 °C 29.4 °F /  -1.4 °C 30.01 in /  1016.1 hPa ENE 7.2 mph /  11.6 km/h 9.2 mph /  14.8 km/h 95 % 0.03 in /  0.76 mm
10:10 30.7 °F /  -0.7 °C 29.4 °F /  -1.4 °C 30.00 in /  1015.8 hPa ENE 9.0 mph /  14.5 km/h 12.7 mph /  20.4 km/h 95 % 0.03 in /  0.76 mm
10:16 30.7 °F /  -0.7 °C 29.4 °F /  -1.4 °C 30.00 in /  1015.8 hPa East 8.4 mph /  13.5 km/h 10.4 mph /  16.7 km/h 95 % 0.04 in /  1.02 mm
10:21 30.8 °F /  -0.7 °C 29.5 °F /  -1.4 °C 30.00 in /  1015.8 hPa East 7.1 mph /  11.4 km/h 9.2 mph /  14.8 km/h 95 % 0.04 in /  1.02 mm
10:26 30.9 °F /  -0.6 °C 29.6 °F /  -1.3 °C 30.01 in /  1016.1 hPa East 7.7 mph /  12.4 km/h 10.4 mph /  16.7 km/h 95 % 0.04 in /  1.02 mm
10:31 30.9 °F /  -0.6 °C 29.6 °F /  -1.3 °C 30.01 in /  1016.1 hPa ENE 8.2 mph /  13.2 km/h 10.4 mph /  16.7 km/h 95 % 0.03 in /  0.76 mm
10:36 30.9 °F /  -0.6 °C 29.6 °F /  -1.3 °C 30.01 in /  1016.1 hPa ENE 6.9 mph /  11.1 km/h 8.1 mph /  13 km/h 95 % 0.03 in /  0.76 mm
10:41 30.9 °F /  -0.6 °C 29.6 °F /  -1.3 °C 30.01 in /  1016.1 hPa ENE 5.6 mph /  9 km/h 9.2 mph /  14.8 km/h 95 % 0.03 in /  0.76 mm
10:46 30.9 °F /  -0.6 °C 29.6 °F /  -1.3 °C 30.00 in /  1015.8 hPa East 6.8 mph /  10.9 km/h 10.4 mph /  16.7 km/h 95 % 0.02 in /  0.51 mm
10:51 31.0 °F /  -0.6 °C 29.7 °F /  -1.3 °C 30.00 in /  1015.8 hPa ENE 5.1 mph /  8.2 km/h 8.1 mph /  13 km/h 95 % 0.03 in /  0.76 mm
10:56 31.0 °F /  -0.6 °C 29.7 °F /  -1.3 °C 30.00 in /  1015.8 hPa ENE 7.3 mph /  11.7 km/h 11.5 mph /  18.5 km/h 95 % 0.02 in /  0.51 mm
11:01 30.9 °F /  -0.6 °C 29.6 °F /  -1.3 °C 29.98 in /  1015.1 hPa ENE 8.0 mph /  12.9 km/h 11.5 mph /  18.5 km/h 95 % 0.02 in /  0.51 mm
11:06 30.8 °F /  -0.7 °C 29.5 °F /  -1.4 °C 29.97 in /  1014.8 hPa ENE 6.6 mph /  10.6 km/h 8.1 mph /  13 km/h 95 % 0.03 in /  0.76 mm
11:11 30.7 °F /  -0.7 °C 29.4 °F /  -1.4 °C 29.96 in /  1014.4 hPa ENE 8.3 mph /  13.4 km/h 12.7 mph /  20.4 km/h 95 % 0.03 in /  0.76 mm
11:16 30.6 °F /  -0.8 °C 29.3 °F /  -1.5 °C 29.96 in /  1014.4 hPa ENE 9.1 mph /  14.6 km/h 12.7 mph /  20.4 km/h 95 % 0.02 in /  0.51 mm
11:21 30.6 °F /  -0.8 °C 29.3 °F /  -1.5 °C 29.95 in /  1014.1 hPa NE 8.5 mph /  13.7 km/h 11.5 mph /  18.5 km/h 95 % 0.02 in /  0.51 mm
11:26 30.5 °F /  -0.8 °C 29.2 °F /  -1.6 °C 29.95 in /  1014.1 hPa ENE 8.9 mph /  14.3 km/h 11.5 mph /  18.5 km/h 95 % 0.03 in /  0.76 mm
11:32 30.5 °F /  -0.8 °C 29.2 °F /  -1.6 °C 29.94 in /  1013.8 hPa East 9.6 mph /  15.4 km/h 12.7 mph /  20.4 km/h 95 % 0.03 in /  0.76 mm
11:37 30.6 °F /  -0.8 °C 29.6 °F /  -1.3 °C 29.92 in /  1013.1 hPa ENE 10.7 mph /  17.2 km/h 13.8 mph /  22.2 km/h 96 % 0.04 in /  1.02 mm
11:42 30.8 °F /  -0.7 °C 29.8 °F /  -1.2 °C 29.91 in /  1012.8 hPa ENE 11.9 mph /  19.2 km/h 15.0 mph /  24.1 km/h 96 % 0.04 in /  1.02 mm
11:47 31.1 °F /  -0.5 °C 30.1 °F /  -1.1 °C 29.90 in /  1012.4 hPa East 11.2 mph /  18 km/h 15.0 mph /  24.1 km/h 96 % 0.04 in /  1.02 mm
11:52 31.1 °F /  -0.5 °C 30.1 °F /  -1.1 °C 29.90 in /  1012.4 hPa ENE 9.7 mph /  15.6 km/h 12.0 mph /  19.3 km/h 96 % 0.04 in /  1.02 mm
11:57 31.1 °F /  -0.5 °C 30.1 °F /  -1.1 °C 29.90 in /  1012.4 hPa ENE 8.5 mph /  13.7 km/h 11.5 mph /  18.5 km/h 96 % 0.05 in /  1.27 mm
12:02 31.2 °F /  -0.4 °C 30.2 °F /  -1 °C 29.89 in /  1012.1 hPa ENE 7.8 mph /  12.6 km/h 10.4 mph /  16.7 km/h 96 % 0.06 in /  1.52 mm
12:07 31.4 °F /  -0.3 °C 30.4 °F /  -0.9 °C 29.88 in /  1011.7 hPa East 8.3 mph /  13.4 km/h 13.0 mph /  20.9 km/h 96 % 0.06 in /  1.52 mm
12:12 31.6 °F /  -0.2 °C 30.6 °F /  -0.8 °C 29.87 in /  1011.4 hPa East 11.3 mph /  18.2 km/h 12.7 mph /  20.4 km/h 96 % 0.07 in /  1.78 mm
12:17 31.9 °F /  -0.1 °C 31.1 °F /  -0.5 °C 29.85 in /  1010.7 hPa East 9.0 mph /  14.5 km/h 12.7 mph /  20.4 km/h 97 % 0.07 in /  1.78 mm
12:22 32.1 °F /  0.1 °C 31.3 °F /  -0.4 °C 29.85 in /  1010.7 hPa East 9.3 mph /  15 km/h 11.5 mph /  18.5 km/h 97 % 0.08 in /  2.03 mm
12:27 32.2 °F /  0.1 °C 31.4 °F /  -0.3 °C 29.85 in /  1010.7 hPa East 8.2 mph /  13.2 km/h 9.2 mph /  14.8 km/h 97 % 0.08 in /  2.03 mm
12:32 32.3 °F /  0.2 °C 31.3 °F /  -0.4 °C 29.84 in /  1010.4 hPa East 10.3 mph /  16.6 km/h 12.7 mph /  20.4 km/h 96 % 0.08 in /  2.03 mm
12:37 32.4 °F /  0.2 °C 31.4 °F /  -0.3 °C 29.83 in /  1010 hPa East 8.0 mph /  12.9 km/h 11.5 mph /  18.5 km/h 96 % 0.07 in /  1.78 mm
12:42 32.5 °F /  0.3 °C 31.5 °F /  -0.3 °C 29.84 in /  1010.4 hPa ENE 7.9 mph /  12.7 km/h 11.5 mph /  18.5 km/h 96 % 0.07 in /  1.78 mm
12:47 32.5 °F /  0.3 °C 31.7 °F /  -0.2 °C 29.84 in /  1010.4 hPa ENE 7.9 mph /  12.7 km/h 10.4 mph /  16.7 km/h 97 % 0.07 in /  1.78 mm
12:52 32.6 °F /  0.3 °C 31.8 °F /  -0.1 °C 29.83 in /  1010 hPa East 7.6 mph /  12.2 km/h 10.4 mph /  16.7 km/h 97 % 0.07 in /  1.78 mm
12:57 32.6 °F /  0.3 °C 31.8 °F /  -0.1 °C 29.84 in /  1010.4 hPa East 7.2 mph /  11.6 km/h 9.2 mph /  14.8 km/h 97 % 0.06 in /  1.52 mm
13:02 32.6 °F /  0.3 °C 31.8 °F /  -0.1 °C 29.84 in /  1010.4 hPa ENE 6.6 mph /  10.6 km/h 9.2 mph /  14.8 km/h 97 % 0.06 in /  1.52 mm
13:07 32.7 °F /  0.4 °C 31.9 °F /  -0.1 °C 29.85 in /  1010.7 hPa East 6.9 mph /  11.1 km/h 9.2 mph /  14.8 km/h 97 % 0.06 in /  1.52 mm
13:12 32.7 °F /  0.4 °C 31.9 °F /  -0.1 °C 29.83 in /  1010 hPa East 7.3 mph /  11.7 km/h 9.2 mph /  14.8 km/h 97 % 0.06 in /  1.52 mm
13:18 32.8 °F /  0.4 °C 32.0 °F /  0 °C 29.82 in /  1009.7 hPa ENE 6.7 mph /  10.8 km/h 8.1 mph /  13 km/h 97 % 0.07 in /  1.78 mm
13:23 32.9 °F /  0.5 °C 32.1 °F /  0.1 °C 29.82 in /  1009.7 hPa ENE 7.2 mph /  11.6 km/h 8.1 mph /  13 km/h 97 % 0.07 in /  1.78 mm
13:28 32.9 °F /  0.5 °C 32.1 °F /  0.1 °C 29.80 in /  1009 hPa East 7.0 mph /  11.3 km/h 8.1 mph /  13 km/h 97 % 0.07 in /  1.78 mm
13:33 32.9 °F /  0.5 °C 32.1 °F /  0.1 °C 29.80 in /  1009 hPa ENE 6.0 mph /  9.7 km/h 8.1 mph /  13 km/h 97 % 0.08 in /  2.03 mm
13:38 33.0 °F /  0.6 °C 32.2 °F /  0.1 °C 29.80 in /  1009 hPa East 5.8 mph /  9.3 km/h 8.1 mph /  13 km/h 97 % 0.08 in /  2.03 mm
13:43 33.0 °F /  0.6 °C 32.2 °F /  0.1 °C 29.79 in /  1008.7 hPa East 8.4 mph /  13.5 km/h 10.4 mph /  16.7 km/h 97 % 0.09 in /  2.29 mm
13:48 33.2 °F /  0.7 °C 32.4 °F /  0.2 °C 29.78 in /  1008.4 hPa East 7.3 mph /  11.7 km/h 10.4 mph /  16.7 km/h 97 % 0.08 in /  2.03 mm
13:53 33.3 °F /  0.7 °C 32.5 °F /  0.3 °C 29.77 in /  1008 hPa East 9.1 mph /  14.6 km/h 11.5 mph /  18.5 km/h 97 % 0.09 in /  2.29 mm
13:58 33.4 °F /  0.8 °C 32.6 °F /  0.3 °C 29.76 in /  1007.7 hPa ENE 8.4 mph /  13.5 km/h 9.2 mph /  14.8 km/h 97 % 0.10 in /  2.54 mm
14:03 33.5 °F /  0.8 °C 32.7 °F /  0.4 °C 29.75 in /  1007.3 hPa East 9.0 mph /  14.5 km/h 11.5 mph /  18.5 km/h 97 % 0.09 in /  2.29 mm
14:08 33.5 °F /  0.8 °C 32.7 °F /  0.4 °C 29.76 in /  1007.7 hPa East 6.0 mph /  9.7 km/h 10.0 mph /  16.1 km/h 97 % 0.00 in /  0 mm
14:13 33.5 °F /  0.8 °C 32.8 °F /  0.4 °C 29.75 in /  1007.3 hPa East 8.0 mph /  12.9 km/h 12.0 mph /  19.3 km/h 97 % 0.00 in /  0 mm
14:18 33.6 °F /  0.9 °C 32.8 °F /  0.4 °C 29.76 in /  1007.7 hPa East 7.8 mph /  12.6 km/h 11.5 mph /  18.5 km/h 97 % 0.06 in /  1.52 mm
14:23 33.7 °F /  0.9 °C 32.9 °F /  0.5 °C 29.75 in /  1007.3 hPa East 7.0 mph /  11.3 km/h 10.0 mph /  16.1 km/h 97 % 0.00 in /  0 mm
14:28 33.8 °F /  1 °C 33.0 °F /  0.6 °C 29.75 in /  1007.3 hPa ENE 7.0 mph /  11.3 km/h 9.0 mph /  14.5 km/h 97 % 0.00 in /  0 mm
14:33 33.8 °F /  1 °C 33.1 °F /  0.6 °C 29.74 in /  1007 hPa East 8.0 mph /  12.9 km/h 13.0 mph /  20.9 km/h 97 % 0.00 in /  0 mm
14:38 33.9 °F /  1.1 °C 33.1 °F /  0.6 °C 29.75 in /  1007.3 hPa East 8.0 mph /  12.9 km/h 10.0 mph /  16.1 km/h 97 % 0.00 in /  0 mm
14:43 34.0 °F /  1.1 °C 33.2 °F /  0.7 °C 29.74 in /  1007 hPa ENE 8.0 mph /  12.9 km/h 10.0 mph /  16.1 km/h 97 % 0.00 in /  0 mm
14:48 34.1 °F /  1.2 °C 33.3 °F /  0.7 °C 29.74 in /  1007 hPa East 8.0 mph /  12.9 km/h 10.0 mph /  16.1 km/h 97 % 0.00 in /  0 mm
14:53 34.1 °F /  1.2 °C 33.3 °F /  0.7 °C 29.74 in /  1007 hPa East 7.0 mph /  11.3 km/h 10.0 mph /  16.1 km/h 97 % 0.00 in /  0 mm
14:58 34.2 °F /  1.2 °C 33.4 °F /  0.8 °C 29.73 in /  1006.7 hPa ENE 7.2 mph /  11.6 km/h 9.2 mph /  14.8 km/h 97 % 0.00 in /  0 mm
15:03 34.3 °F /  1.3 °C 33.5 °F /  0.8 °C 29.73 in /  1006.7 hPa East 6.9 mph /  11.1 km/h 9.2 mph /  14.8 km/h 97 % 0.01 in /  0.25 mm
15:08 34.4 °F /  1.3 °C 33.6 °F /  0.9 °C 29.73 in /  1006.7 hPa East 6.8 mph /  10.9 km/h 9.2 mph /  14.8 km/h 97 % 0.01 in /  0.25 mm
15:13 34.5 °F /  1.4 °C 33.7 °F /  0.9 °C 29.72 in /  1006.3 hPa East 6.4 mph /  10.3 km/h 9.2 mph /  14.8 km/h 97 % 0.01 in /  0.25 mm
15:18 34.6 °F /  1.4 °C 34.1 °F /  1.2 °C 29.72 in /  1006.3 hPa East 6.8 mph /  10.9 km/h 9.0 mph /  14.5 km/h 98 % 0.01 in /  0.25 mm
15:24 34.7 °F /  1.5 °C 34.2 °F /  1.2 °C 29.71 in /  1006 hPa East 7.7 mph /  12.4 km/h 10.4 mph /  16.7 km/h 98 % 0.01 in /  0.25 mm
15:29 34.9 °F /  1.6 °C 34.1 °F /  1.2 °C 29.71 in /  1006 hPa East 7.1 mph /  11.4 km/h 9.2 mph /  14.8 km/h 97 % 0.01 in /  0.25 mm
15:34 35.1 °F /  1.7 °C 34.3 °F /  1.3 °C 29.71 in /  1006 hPa East 6.9 mph /  11.1 km/h 9.2 mph /  14.8 km/h 97 % 0.01 in /  0.25 mm
15:39 35.2 °F /  1.8 °C 34.4 °F /  1.3 °C 29.71 in /  1006 hPa ENE 8.6 mph /  13.8 km/h 11.0 mph /  17.7 km/h 97 % 0.01 in /  0.25 mm
15:44 35.4 °F /  1.9 °C 34.9 °F /  1.6 °C 29.71 in /  1006 hPa ENE 7.7 mph /  12.4 km/h 10.4 mph /  16.7 km/h 98 % 0.01 in /  0.25 mm
15:49 35.5 °F /  1.9 °C 35.0 °F /  1.7 °C 29.70 in /  1005.6 hPa ENE 7.9 mph /  12.7 km/h 11.5 mph /  18.5 km/h 98 % 0.01 in /  0.25 mm
15:54 35.7 °F /  2.1 °C 35.2 °F /  1.8 °C 29.69 in /  1005.3 hPa East 6.9 mph /  11.1 km/h 10.4 mph /  16.7 km/h 98 % 0.01 in /  0.25 mm
15:59 35.8 °F /  2.1 °C 35.3 °F /  1.8 °C 29.69 in /  1005.3 hPa ENE 6.8 mph /  10.9 km/h 9.2 mph /  14.8 km/h 98 % 0.02 in /  0.51 mm
16:04 35.9 °F /  2.2 °C 35.4 °F /  1.9 °C 29.69 in /  1005.3 hPa East 6.2 mph /  10 km/h 8.0 mph /  12.9 km/h 98 % 0.01 in /  0.25 mm
16:09 36.0 °F /  2.2 °C 35.5 °F /  1.9 °C 29.69 in /  1005.3 hPa ENE 6.8 mph /  10.9 km/h 9.2 mph /  14.8 km/h 98 % 0.01 in /  0.25 mm
16:14 36.1 °F /  2.3 °C 35.6 °F /  2 °C 29.68 in /  1005 hPa East 7.5 mph /  12.1 km/h 10.0 mph /  16.1 km/h 98 % 0.01 in /  0.25 mm
16:19 36.1 °F /  2.3 °C 35.6 °F /  2 °C 29.67 in /  1004.6 hPa East 7.7 mph /  12.4 km/h 10.4 mph /  16.7 km/h 98 % 0.01 in /  0.25 mm
16:24 36.1 °F /  2.3 °C 35.6 °F /  2 °C 29.67 in /  1004.6 hPa ENE 6.7 mph /  10.8 km/h 10.4 mph /  16.7 km/h 98 % 0.01 in /  0.25 mm
16:29 36.2 °F /  2.3 °C 35.7 °F /  2.1 °C 29.66 in /  1004.3 hPa ENE 7.2 mph /  11.6 km/h 10.4 mph /  16.7 km/h 98 % 0.01 in /  0.25 mm
16:34 36.2 °F /  2.3 °C 35.7 °F /  2.1 °C 29.65 in /  1003.9 hPa East 8.1 mph /  13 km/h 10.4 mph /  16.7 km/h 98 % 0.01 in /  0.25 mm
16:39 36.2 °F /  2.3 °C 35.7 °F /  2.1 °C 29.65 in /  1003.9 hPa East 7.1 mph /  11.4 km/h 10.4 mph /  16.7 km/h 98 % 0.01 in /  0.25 mm
16:44 36.2 °F /  2.3 °C 35.7 °F /  2.1 °C 29.65 in /  1003.9 hPa East 5.7 mph /  9.2 km/h 9.0 mph /  14.5 km/h 98 % 0.01 in /  0.25 mm
16:50 36.2 °F /  2.3 °C 35.7 °F /  2.1 °C 29.64 in /  1003.6 hPa East 6.7 mph /  10.8 km/h 10.4 mph /  16.7 km/h 98 % 0.01 in /  0.25 mm
16:55 36.2 °F /  2.3 °C 35.7 °F /  2.1 °C 29.64 in /  1003.6 hPa East 6.9 mph /  11.1 km/h 8.1 mph /  13 km/h 98 % 0.01 in /  0.25 mm
17:00 36.3 °F /  2.4 °C 35.8 °F /  2.1 °C 29.64 in /  1003.6 hPa East 6.7 mph /  10.8 km/h 9.2 mph /  14.8 km/h 98 % 0.00 in /  0 mm
17:05 36.3 °F /  2.4 °C 35.8 °F /  2.1 °C 29.64 in /  1003.6 hPa ENE 7.6 mph /  12.2 km/h 10.4 mph /  16.7 km/h 98 % 0.00 in /  0 mm
17:10 36.4 °F /  2.4 °C 35.9 °F /  2.2 °C 29.64 in /  1003.6 hPa ENE 7.5 mph /  12.1 km/h 9.2 mph /  14.8 km/h 98 % 0.00 in /  0 mm
17:15 36.4 °F /  2.4 °C 35.9 °F /  2.2 °C 29.63 in /  1003.3 hPa ENE 7.4 mph /  11.9 km/h 10.4 mph /  16.7 km/h 98 % 0.00 in /  0 mm
17:20 36.4 °F /  2.4 °C 35.9 °F /  2.2 °C 29.63 in /  1003.3 hPa East 7.4 mph /  11.9 km/h 9.2 mph /  14.8 km/h 98 % 0.00 in /  0 mm
17:25 36.4 °F /  2.4 °C 35.9 °F /  2.2 °C 29.63 in /  1003.3 hPa ENE 5.6 mph /  9 km/h 9.2 mph /  14.8 km/h 98 % 0.00 in /  0 mm
17:30 36.5 °F /  2.5 °C 36.0 °F /  2.2 °C 29.64 in /  1003.6 hPa ENE 6.0 mph /  9.7 km/h 6.0 mph /  9.7 km/h 98 % 0.00 in /  0 mm
17:35 36.6 °F /  2.6 °C 36.1 °F /  2.3 °C 29.65 in /  1003.9 hPa ENE 9.2 mph /  14.8 km/h 10.4 mph /  16.7 km/h 98 % 0.00 in /  0 mm
17:40 36.7 °F /  2.6 °C 36.2 °F /  2.3 °C 29.64 in /  1003.6 hPa ENE 6.9 mph /  11.1 km/h 9.2 mph /  14.8 km/h 98 % 0.00 in /  0 mm
17:45 36.8 °F /  2.7 °C 36.3 °F /  2.4 °C 29.64 in /  1003.6 hPa East 5.9 mph /  9.5 km/h 6.9 mph /  11.1 km/h 98 % 0.00 in /  0 mm
17:50 36.8 °F /  2.7 °C 36.3 °F /  2.4 °C 29.63 in /  1003.3 hPa ENE 5.4 mph /  8.7 km/h 8.1 mph /  13 km/h 98 % 0.00 in /  0 mm
17:55 36.8 °F /  2.7 °C 36.3 °F /  2.4 °C 29.65 in /  1003.9 hPa North 3.2 mph /  5.1 km/h 5.8 mph /  9.3 km/h 98 % 0.01 in /  0.25 mm
18:00 36.5 °F /  2.5 °C 36.0 °F /  2.2 °C 29.63 in /  1003.3 hPa NE 4.3 mph /  6.9 km/h 10.4 mph /  16.7 km/h 98 % 0.01 in /  0.25 mm
18:05 35.5 °F /  1.9 °C 35.0 °F /  1.7 °C 29.63 in /  1003.3 hPa NNE 4.6 mph /  7.4 km/h 11.5 mph /  18.5 km/h 98 % 0.01 in /  0.25 mm
18:10 35.2 °F /  1.8 °C 34.4 °F /  1.3 °C 29.64 in /  1003.6 hPa NNE 5.9 mph /  9.5 km/h 15.0 mph /  24.1 km/h 97 % 0.01 in /  0.25 mm
18:15 35.0 °F /  1.7 °C 34.2 °F /  1.2 °C 29.64 in /  1003.6 hPa North 2.7 mph /  4.3 km/h 6.9 mph /  11.1 km/h 97 % 0.01 in /  0.25 mm
18:21 34.8 °F /  1.6 °C 34.3 °F /  1.3 °C 29.64 in /  1003.6 hPa NNE 9.1 mph /  14.6 km/h 13.8 mph /  22.2 km/h 98 % 0.01 in /  0.25 mm
18:26 34.7 °F /  1.5 °C 34.2 °F /  1.2 °C 29.64 in /  1003.6 hPa North 4.5 mph /  7.2 km/h 9.2 mph /  14.8 km/h 98 % 0.01 in /  0.25 mm
18:31 34.6 °F /  1.4 °C 33.8 °F /  1 °C 29.65 in /  1003.9 hPa NNW 1.2 mph /  1.9 km/h 3.5 mph /  5.6 km/h 97 % 0.01 in /  0.25 mm
18:36 34.5 °F /  1.4 °C 33.7 °F /  0.9 °C 29.64 in /  1003.6 hPa NE 4.5 mph /  7.2 km/h 8.1 mph /  13 km/h 97 % 0.01 in /  0.25 mm
18:41 34.4 °F /  1.3 °C 33.9 °F /  1.1 °C 29.65 in /  1003.9 hPa NNW 4.1 mph /  6.6 km/h 8.1 mph /  13 km/h 98 % 0.01 in /  0.25 mm
18:46 34.4 °F /  1.3 °C 33.9 °F /  1.1 °C 29.63 in /  1003.3 hPa ENE 6.6 mph /  10.6 km/h 10.0 mph /  16.1 km/h 98 % 0.01 in /  0.25 mm
18:51 34.4 °F /  1.3 °C 33.9 °F /  1.1 °C 29.65 in /  1003.9 hPa WSW 4.1 mph /  6.6 km/h 6.9 mph /  11.1 km/h 98 % 0.01 in /  0.25 mm
18:56 34.5 °F /  1.4 °C 34.0 °F /  1.1 °C 29.64 in /  1003.6 hPa North 4.5 mph /  7.2 km/h 9.2 mph /  14.8 km/h 98 % 0.00 in /  0 mm
19:01 34.4 °F /  1.3 °C 33.9 °F /  1.1 °C 29.64 in /  1003.6 hPa NNE 1.2 mph /  1.9 km/h 3.5 mph /  5.6 km/h 98 % 0.00 in /  0 mm
19:06 34.5 °F /  1.4 °C 34.0 °F /  1.1 °C 29.65 in /  1003.9 hPa NNE 5.6 mph /  9 km/h 9.2 mph /  14.8 km/h 98 % 0.01 in /  0.25 mm
19:11 34.5 °F /  1.4 °C 34.0 °F /  1.1 °C 29.66 in /  1004.3 hPa NNW 4.5 mph /  7.2 km/h 6.9 mph /  11.1 km/h 98 % 0.01 in /  0.25 mm
19:16 34.5 °F /  1.4 °C 34.0 °F /  1.1 °C 29.65 in /  1003.9 hPa North 3.6 mph /  5.8 km/h 6.9 mph /  11.1 km/h 98 % 0.01 in /  0.25 mm
19:21 34.6 °F /  1.4 °C 34.1 °F /  1.2 °C 29.65 in /  1003.9 hPa NNE 3.5 mph /  5.6 km/h 7.0 mph /  11.3 km/h 98 % 0.01 in /  0.25 mm
19:27 34.7 °F /  1.5 °C 34.2 °F /  1.2 °C 29.65 in /  1003.9 hPa NNW 1.6 mph /  2.6 km/h 3.5 mph /  5.6 km/h 98 % 0.01 in /  0.25 mm
19:32 34.7 °F /  1.5 °C 34.2 °F /  1.2 °C 29.65 in /  1003.9 hPa NNW 2.0 mph /  3.2 km/h 4.6 mph /  7.4 km/h 98 % 0.01 in /  0.25 mm
19:37 34.7 °F /  1.5 °C 34.2 °F /  1.2 °C 29.64 in /  1003.6 hPa NE 3.9 mph /  6.3 km/h 8.0 mph /  12.9 km/h 98 % 0.01 in /  0.25 mm
19:42 34.8 °F /  1.6 °C 34.3 °F /  1.3 °C 29.64 in /  1003.6 hPa North 3.4 mph /  5.5 km/h 5.8 mph /  9.3 km/h 98 % 0.01 in /  0.25 mm
19:47 34.7 °F /  1.5 °C 34.2 °F /  1.2 °C 29.63 in /  1003.3 hPa NNE 3.0 mph /  4.8 km/h 4.6 mph /  7.4 km/h 98 % 0.01 in /  0.25 mm
19:52 34.7 °F /  1.5 °C 34.2 °F /  1.2 °C 29.64 in /  1003.6 hPa NNE 2.3 mph /  3.7 km/h 3.5 mph /  5.6 km/h 98 % 0.01 in /  0.25 mm
19:57 34.7 °F /  1.5 °C 34.2 °F /  1.2 °C 29.64 in /  1003.6 hPa NW 2.8 mph /  4.5 km/h 4.6 mph /  7.4 km/h 98 % 0.01 in /  0.25 mm
20:02 34.7 °F /  1.5 °C 34.2 °F /  1.2 °C 29.63 in /  1003.3 hPa NNE 2.8 mph /  4.5 km/h 6.0 mph /  9.7 km/h 98 % 0.01 in /  0.25 mm
20:07 34.6 °F /  1.4 °C 34.1 °F /  1.2 °C 29.63 in /  1003.3 hPa NNE 2.5 mph /  4 km/h 5.0 mph /  8 km/h 98 % 0.00 in /  0 mm
20:12 34.6 °F /  1.4 °C 34.1 °F /  1.2 °C 29.63 in /  1003.3 hPa North 2.0 mph /  3.2 km/h 5.0 mph /  8 km/h 98 % 0.00 in /  0 mm
20:17 34.5 °F /  1.4 °C 34.0 °F /  1.1 °C 29.63 in /  1003.3 hPa NW 2.5 mph /  4 km/h 4.6 mph /  7.4 km/h 98 % 0.00 in /  0 mm
20:22 34.5 °F /  1.4 °C 34.0 °F /  1.1 °C 29.64 in /  1003.6 hPa West 3.3 mph /  5.3 km/h 7.0 mph /  11.3 km/h 98 % 0.00 in /  0 mm
20:27 34.5 °F /  1.4 °C 34.0 °F /  1.1 °C 29.64 in /  1003.6 hPa West 3.3 mph /  5.3 km/h 4.6 mph /  7.4 km/h 98 % 0.00 in /  0 mm
20:32 34.4 °F /  1.3 °C 33.9 °F /  1.1 °C 29.63 in /  1003.3 hPa WNW 2.7 mph /  4.3 km/h 4.6 mph /  7.4 km/h 98 % 0.00 in /  0 mm
20:37 34.4 °F /  1.3 °C 33.9 °F /  1.1 °C 29.63 in /  1003.3 hPa NW 2.2 mph /  3.5 km/h 8.1 mph /  13 km/h 98 % 0.00 in /  0 mm
20:42 34.4 °F /  1.3 °C 33.9 °F /  1.1 °C 29.63 in /  1003.3 hPa WNW 4.1 mph /  6.6 km/h 8.1 mph /  13 km/h 98 % 0.00 in /  0 mm
20:48 34.4 °F /  1.3 °C 33.9 °F /  1.1 °C 29.63 in /  1003.3 hPa WNW 1.9 mph /  3.1 km/h 5.8 mph /  9.3 km/h 98 % 0.00 in /  0 mm
20:53 34.3 °F /  1.3 °C 33.8 °F /  1 °C 29.62 in /  1002.9 hPa NNW 2.0 mph /  3.2 km/h 3.5 mph /  5.6 km/h 98 % 0.00 in /  0 mm
20:58 34.3 °F /  1.3 °C 33.8 °F /  1 °C 29.62 in /  1002.9 hPa NW 1.8 mph /  2.9 km/h 4.0 mph /  6.4 km/h 98 % 0.00 in /  0 mm
21:03 34.3 °F /  1.3 °C 33.8 °F /  1 °C 29.62 in /  1002.9 hPa NW 2.1 mph /  3.4 km/h 3.5 mph /  5.6 km/h 98 % 0.00 in /  0 mm
21:08 34.3 °F /  1.3 °C 33.8 °F /  1 °C 29.62 in /  1002.9 hPa NW 5.5 mph /  8.9 km/h 10.4 mph /  16.7 km/h 98 % 0.00 in /  0 mm
21:13 34.3 °F /  1.3 °C 33.8 °F /  1 °C 29.62 in /  1002.9 hPa WNW 2.3 mph /  3.7 km/h 9.2 mph /  14.8 km/h 98 % 0.00 in /  0 mm
21:18 34.2 °F /  1.2 °C 33.7 °F /  0.9 °C 29.62 in /  1002.9 hPa West 3.0 mph /  4.8 km/h 5.8 mph /  9.3 km/h 98 % 0.00 in /  0 mm
21:23 34.1 °F /  1.2 °C 33.6 °F /  0.9 °C 29.61 in /  1002.6 hPa NW 2.1 mph /  3.4 km/h 6.0 mph /  9.7 km/h 98 % 0.00 in /  0 mm
21:28 34.0 °F /  1.1 °C 33.5 °F /  0.8 °C 29.61 in /  1002.6 hPa WNW 2.0 mph /  3.2 km/h 5.8 mph /  9.3 km/h 98 % 0.00 in /  0 mm
21:33 34.0 °F /  1.1 °C 33.5 °F /  0.8 °C 29.61 in /  1002.6 hPa WNW 4.0 mph /  6.4 km/h 8.1 mph /  13 km/h 98 % 0.00 in /  0 mm
21:38 33.9 °F /  1.1 °C 33.4 °F /  0.8 °C 29.60 in /  1002.3 hPa WNW 0.6 mph /  1 km/h 2.3 mph /  3.7 km/h 98 % 0.00 in /  0 mm
21:43 33.9 °F /  1.1 °C 33.4 °F /  0.8 °C 29.60 in /  1002.3 hPa WNW 2.9 mph /  4.7 km/h 7.0 mph /  11.3 km/h 98 % 0.00 in /  0 mm
21:48 33.9 °F /  1.1 °C 33.4 °F /  0.8 °C 29.60 in /  1002.3 hPa NW 2.3 mph /  3.7 km/h 8.1 mph /  13 km/h 98 % 0.00 in /  0 mm
21:53 33.9 °F /  1.1 °C 33.4 °F /  0.8 °C 29.60 in /  1002.3 hPa WNW 4.2 mph /  6.8 km/h 8.0 mph /  12.9 km/h 98 % 0.00 in /  0 mm
21:58 33.9 °F /  1.1 °C 33.4 °F /  0.8 °C 29.59 in /  1001.9 hPa NW 4.0 mph /  6.4 km/h 8.1 mph /  13 km/h 98 % 0.00 in /  0 mm
22:03 33.9 °F /  1.1 °C 33.4 °F /  0.8 °C 29.60 in /  1002.3 hPa WNW 3.0 mph /  4.8 km/h 9.2 mph /  14.8 km/h 98 % 0.00 in /  0 mm
22:08 33.9 °F /  1.1 °C 33.4 °F /  0.8 °C 29.60 in /  1002.3 hPa West 1.3 mph /  2.1 km/h 5.8 mph /  9.3 km/h 98 % 0.00 in /  0 mm
22:13 33.9 °F /  1.1 °C 33.4 °F /  0.8 °C 29.60 in /  1002.3 hPa NW 2.5 mph /  4 km/h 5.8 mph /  9.3 km/h 98 % 0.00 in /  0 mm
22:18 34.0 °F /  1.1 °C 33.5 °F /  0.8 °C 29.59 in /  1001.9 hPa West 2.2 mph /  3.5 km/h 6.9 mph /  11.1 km/h 98 % 0.00 in /  0 mm
22:23 33.9 °F /  1.1 °C 33.4 °F /  0.8 °C 29.59 in /  1001.9 hPa West 1.9 mph /  3.1 km/h 3.5 mph /  5.6 km/h 98 % 0.00 in /  0 mm
22:29 33.9 °F /  1.1 °C 33.4 °F /  0.8 °C 29.59 in /  1001.9 hPa WNW 0.5 mph /  0.8 km/h 3.5 mph /  5.6 km/h 98 % 0.00 in /  0 mm
22:34 33.9 °F /  1.1 °C 33.4 °F /  0.8 °C 29.58 in /  1001.6 hPa WNW 4.2 mph /  6.8 km/h 6.9 mph /  11.1 km/h 98 % 0.00 in /  0 mm
22:39 33.8 °F /  1 °C 33.3 °F /  0.7 °C 29.58 in /  1001.6 hPa WNW 3.6 mph /  5.8 km/h 4.6 mph /  7.4 km/h 98 % 0.00 in /  0 mm
22:44 33.7 °F /  0.9 °C 33.2 °F /  0.7 °C 29.58 in /  1001.6 hPa NW 1.1 mph /  1.8 km/h 5.8 mph /  9.3 km/h 98 % 0.00 in /  0 mm
22:49 33.7 °F /  0.9 °C 33.2 °F /  0.7 °C 29.58 in /  1001.6 hPa NW 1.1 mph /  1.8 km/h 5.0 mph /  8 km/h 98 % 0.00 in /  0 mm
22:54 33.6 °F /  0.9 °C 33.1 °F /  0.6 °C 29.58 in /  1001.6 hPa West 0.4 mph /  0.6 km/h 3.5 mph /  5.6 km/h 98 % 0.00 in /  0 mm
22:59 33.5 °F /  0.8 °C 33.0 °F /  0.6 °C 29.58 in /  1001.6 hPa West 1.3 mph /  2.1 km/h 3.5 mph /  5.6 km/h 98 % 0.00 in /  0 mm
23:04 33.4 °F /  0.8 °C 32.9 °F /  0.5 °C 29.57 in /  1001.2 hPa West 2.0 mph /  3.2 km/h 3.5 mph /  5.6 km/h 98 % 0.00 in /  0 mm
23:09 33.3 °F /  0.7 °C 32.8 °F /  0.4 °C 29.57 in /  1001.2 hPa West 0.4 mph /  0.6 km/h 2.3 mph /  3.7 km/h 98 % 0.00 in /  0 mm
23:14 33.3 °F /  0.7 °C 32.8 °F /  0.4 °C 29.56 in /  1000.9 hPa Calm   1.2 mph /  1.9 km/h 98 % 0.00 in /  0 mm
23:19 33.2 °F /  0.7 °C 32.7 °F /  0.4 °C 29.56 in /  1000.9 hPa WSW 2.4 mph /  3.9 km/h 4.6 mph /  7.4 km/h 98 % 0.00 in /  0 mm
23:24 33.2 °F /  0.7 °C 32.7 °F /  0.4 °C 29.56 in /  1000.9 hPa West 2.2 mph /  3.5 km/h 5.8 mph /  9.3 km/h 98 % 0.00 in /  0 mm
23:29 33.1 °F /  0.6 °C 32.6 °F /  0.3 °C 29.55 in /  1000.6 hPa West 1.7 mph /  2.7 km/h 4.6 mph /  7.4 km/h 98 % 0.00 in /  0 mm
23:34 33.1 °F /  0.6 °C 32.6 °F /  0.3 °C 29.55 in /  1000.6 hPa WSW 3.3 mph /  5.3 km/h 5.0 mph /  8 km/h 98 % 0.00 in /  0 mm
23:39 33.1 °F /  0.6 °C 32.6 °F /  0.3 °C 29.55 in /  1000.6 hPa West 1.0 mph /  1.6 km/h 3.5 mph /  5.6 km/h 98 % 0.00 in /  0 mm
23:44 33.1 °F /  0.6 °C 32.6 °F /  0.3 °C 29.55 in /  1000.6 hPa WSW 2.8 mph /  4.5 km/h 5.8 mph /  9.3 km/h 98 % 0.00 in /  0 mm
23:49 33.0 °F /  0.6 °C 32.2 °F /  0.1 °C 29.55 in /  1000.6 hPa West 1.1 mph /  1.8 km/h 3.5 mph /  5.6 km/h 97 % 0.00 in /  0 mm
23:54 33.0 °F /  0.6 °C 32.2 °F /  0.1 °C 29.55 in /  1000.6 hPa WSW 2.1 mph /  3.4 km/h 2.3 mph /  3.7 km/h 97 % 0.00 in /  0 mm
23:59 33.0 °F /  0.6 °C 32.2 °F /  0.1 °C 29.55 in /  1000.6 hPa West 3.3 mph /  5.3 km/h 9.2 mph /  14.8 km/h 97 % 0.00 in /  0 mm
Crab Meadow Weather
Compliments of Weather Underground - 3 mb

Script developed by  Jim McMurry - jmcmurry@mwt.net Adapted for the template by  Wim van der Kuil - Leuven-Template.eu

Extremes: The greatest annual rainfall in the United States was 184.56 inches at Wynooches, Oxbow, Washington in 1931.